Location: Podia
(1.5569°N, 32.3469°E)
Time: 10:51:44
(UTC+00:00)

N. Korean satellite - Pass Details

Date: 13 August 2020
Orbit: 455 x 503 km, 97.2° (Epoch: 22 September)

Event Time Altitude Azimuth Distance (km) Brightness Sun altitude
Rises 02:19:08 0° 40° (NE) 2,554 11.1 -22.8°
Reaches altitude 10° 02:21:49 10° 62° (ENE) 1,685 10.4 -22.2°
Maximum altitude 02:24:05 16° 101° (E) 1,365 9.6 -21.6°
Drops below altitude 10° 02:26:23 10° 140° (SE) 1,702 9.6 -21.1°
Sets 02:29:06 0° 162° (SSE) 2,593 10.3 -20.4°
